Content
SEND FEEDBACK

Daily
Averages
Monthly
Summary
United States of America

PINE GROVE, KENTUCKY


Home > North America > United States > Kentucky
Elevation: 967 feet     Latitude: 38 01N     Longitude: 084 35W

WEATHER
 
SELECT A DAY
Number of Records: 198,213;   Date Range: 7/1/96 - 12/18/14
 
SHARE

PRINT THIS DATA

[ ← Previous Day ]
WEATHER ALMANAC - FEBRUARY 13, 2013
[ Next Day → ]
[ °C ]   °F
Weather ElementAverageHighLow
Temperature35.3 °F39 °F (4:53 pm)30 °F (8:53 pm)
Dewpoint30.6 °F33.8 °F (2:23 pm)27 °F (3:53 am)
Humidity83.5 %96 % (1:53 pm)65 % (3:53 am)
Barometer29.83 in29.95 in (11:53 pm)29.75 in (6:53 am)
Wind Speed6.1 mph13.8 mph (11:53 am)
Wind Gust17.3 mph (11:39 am)
Weather ElementAverage
Visibility6.4 mi
Wind DirectionWSW (252.9 °)

Weather ElementTotal
Precipitation0.23 in
Heating Degree Days30.5 (Base 65)
Averaged from 45 records on February 13, 2013
WEATHER CONDITIONS BREAKOUT
WIND DIRECTION BREAKOUT
WEATHER BY HOUR - FEBRUARY 13, 2013
[ °C ]   °F
Local TimeTemperatureDewpointHumidityBarometerVisibilityWind DirectionWind SpeedGust SpeedPrecipitationEventsConditions
1:53 AM35.1 °F28.9 °F78 %29.87 in10.0 miNW (320°)3.5 mphOvercast
2:53 AM37.0 °F28.9 °F73 %29.85 in10.0 miNorth (350°)4.6 mphOvercast
3:53 AM37.9 °F27.0 °F65 %29.81 in10.0 miNorth (10°)5.8 mphOvercast
4:53 AM37.9 °F27.0 °F65 %29.79 in10.0 miNNE (20°)8.1 mphOvercast
5:53 AM37.9 °F27.0 °F65 %29.78 in10.0 miNorth (10°)5.8 mphOvercast
6:53 AM37.9 °F27.0 °F65 %29.75 in10.0 miNNE (20°)4.6 mphOvercast
7:53 AM37.0 °F28.0 °F70 %29.79 in10.0 miNNW (340°)6.9 mphOvercast
8:53 AM37.0 °F28.0 °F70 %29.83 in9.0 miNW (320°)5.8 mphOvercast
9:53 AM36.0 °F32.0 °F86 %29.81 in5.0 miNNW (340°)6.9 mph0.00 inOvercast
10:53 AM37.0 °F30.0 °F76 %29.81 in8.0 miNNW (330°)6.9 mphOvercast
11:12 AM37.4 °F30.2 °F75 %29.79 in8.0 miNNW (340°)10.4 mphOvercast
11:39 AM35.6 °F30.2 °F81 %29.80 in5.0 miNNW (330°)11.5 mph17.3 mph0.00 inSnowLight Snow
11:51 AM35.6 °F30.2 °F81 %29.80 in2.5 miNNW (340°)11.5 mph0.00 inSnowLight Snow
11:53 AM35.1 °F30.0 °F82 %29.82 in2.0 miNNW (330°)13.8 mph0.00 inSnowLight Snow
11:55 AM35.6 °F30.2 °F81 %29.81 in1.8 miNNW (330°)10.4 mph0.00 inSnowLight Snow
12:06 PM33.8 °F30.2 °F87 %29.81 in1.0 miNNW (330°)6.9 mph0.01 inSnowLight Snow
12:10 PM33.8 °F32.0 °F93 %29.81 in0.8 miNNW (330°)9.2 mph0.01 inSnowLight Snow
12:17 PM33.8 °F30.2 °F87 %29.81 in0.5 miNNW (340°)9.2 mph0.01 inFog-SnowSnow
12:27 PM33.8 °F32.0 °F93 %29.81 in0.5 miNW (320°)6.9 mph0.02 inFog-SnowSnow
12:38 PM33.8 °F32.0 °F93 %29.81 in0.5 miNW (320°)5.8 mph0.03 inFog-SnowSnow
12:50 PM33.8 °F32.0 °F93 %29.81 in0.8 miNW (310°)6.9 mph0.03 inSnowLight Snow
12:53 PM33.1 °F30.9 °F92 %29.83 in0.8 miNNW (330°)6.9 mph0.04 inSnowLight Snow
1:13 PM33.8 °F32.0 °F93 %29.81 in0.8 miNW (310°)3.5 mph0.01 inSnowLight Snow
1:23 PM33.8 °F32.0 °F93 %29.81 in0.8 miWNW (300°)5.8 mph0.01 inSnowLight Snow
1:34 PM33.8 °F32.0 °F93 %29.81 in1.0 miNW (320°)4.6 mph0.02 inSnowLight Snow
1:42 PM33.8 °F32.0 °F93 %29.81 in1.5 miNW (310°)5.8 mph0.02 inSnowLight Snow
1:53 PM34.0 °F33.1 °F96 %29.83 in1.5 miWNW (300°)4.6 mph0.02 inSnowLight Snow
2:02 PM35.6 °F32.0 °F87 %29.81 in3.0 miWNW (300°)5.8 mph0.00 inSnowLight Snow
2:23 PM35.6 °F33.8 °F93 %29.81 in7.0 miNW (310°)5.8 mph0.00 inOvercast
2:53 PM37.0 °F33.1 °F86 %29.81 in10.0 miCalm0.00 inOvercast
3:03 PM37.4 °F33.8 °F87 %29.79 in10.0 miCalmOvercast
3:14 PM37.4 °F32.0 °F81 %29.79 in10.0 miCalmOvercast
3:43 PM37.4 °F33.8 °F87 %29.81 in10.0 miWest (270°)5.8 mphOvercast
3:51 PM37.4 °F33.8 °F87 %29.81 in10.0 miWest (260°)6.9 mphOvercast
3:53 PM37.0 °F33.1 °F86 %29.83 in10.0 miWest (280°)5.8 mphOvercast
4:36 PM37.4 °F32.0 °F81 %29.83 in10.0 miWNW (300°)8.1 mphOvercast
4:53 PM39.0 °F33.1 °F79 %29.85 in10.0 miWNW (300°)6.9 mphMostly Cloudy
5:21 PM37.4 °F30.2 °F75 %29.84 in10.0 miWSW (250°)4.6 mphScattered Clouds
5:53 PM37.0 °F30.0 °F76 %29.86 in10.0 miWSW (250°)3.5 mphClear
6:53 PM34.0 °F28.9 °F82 %29.89 in10.0 miWSW (240°)4.6 mphClear
7:53 PM32.0 °F28.9 °F88 %29.91 in10.0 miSW (220°)5.8 mphClear
8:53 PM30.0 °F28.0 °F92 %29.92 in9.0 miSSW (210°)4.6 mphClear
9:53 PM30.9 °F28.9 °F92 %29.94 in10.0 miWSW (240°)4.6 mphClear
10:53 PM30.0 °F28.0 °F92 %29.94 in9.0 miSSW (200°)3.5 mphClear
11:53 PM30.0 °F27.0 °F88 %29.95 in8.0 miSSW (200°)4.6 mphClear
Hourly data recorded from KFFT, located miles away from Pine Grove, Kentucky







STORIES FROM OUR PARTNERS